This is the latest recevied weather packets stored in our database for station/object K4AMF. If no packets are shown the sender has not sent any weather packets the latest 10 day(s).
| Time | Temp. | Humidity | Pressure | Rain* | Wind** | Luminosity | Snow |
|---|---|---|---|---|---|---|---|
| 1777473873 | 26.11° C | 76% | 1013.8 hPa | 0 mm | - | 531 W/m² | - |
| 1777473570 | 26.11° C | 77% | 1013.9 hPa | 0 mm | - | 675 W/m² | - |
| 1777473266 | 25.56° C | 77% | 1013.9 hPa | 0 mm | - | 676 W/m² | - |
| 1777472961 | 25.56° C | 77% | 1013.7 hPa | 0 mm | - | 244 W/m² | - |
| 1777472658 | 26.11° C | 76% | 1013.9 hPa | 0 mm | - | 280 W/m² | - |
| 1777472355 | 26.11° C | 75% | 1014 hPa | 0 mm | - | 247 W/m² | - |
| 1777472053 | 26.11° C | 75% | 1014 hPa | 0 mm | - | 732 W/m² | - |
| 1777471747 | 26.11° C | 76% | 1014.1 hPa | 0 mm | - | 567 W/m² | - |
| 1777471444 | 26.11° C | 77% | 1014.2 hPa | 0 mm | - | 699 W/m² | - |
| 1777471141 | 25.56° C | 78% | 1014.2 hPa | 0 mm | - | 727 W/m² | - |
| 1777470838 | 25° C | 79% | 1014.4 hPa | 0 mm | - | 414 W/m² | - |
| 1777470535 | 25° C | 79% | 1014.3 hPa | 0 mm | - | 617 W/m² | - |
| 1777470231 | 24.44° C | 80% | 1014.5 hPa | 0 mm | - | 561 W/m² | - |
| 1777469927 | 23.89° C | 80% | 1014.4 hPa | 0 mm | - | 583 W/m² | - |
| 1777469623 | 23.89° C | 81% | 1014.8 hPa | 0 mm | - | 368 W/m² | - |
| 1777469318 | 23.89° C | 82% | 1014.5 hPa | 0 mm | - | 263 W/m² | - |
| 1777469013 | 23.33° C | 83% | 1014.7 hPa | 0 mm | - | 375 W/m² | - |
| 1777468709 | 22.78° C | 85% | 1014.7 hPa | 0 mm | - | 314 W/m² | - |
| 1777468406 | 22.78° C | 86% | 1014.7 hPa | 0 mm | - | 314 W/m² | - |
| 1777468102 | 22.78° C | 87% | 1014.5 hPa | 0 mm | - | 199 W/m² | - |
| 1777467798 | 22.78° C | 87% | 1014.4 hPa | 0 mm | - | 186 W/m² | - |
| 1777467493 | 22.78° C | 87% | 1014.4 hPa | 0 mm | - | 172 W/m² | - |
| 1777467188 | 22.78° C | 86% | 1014.5 hPa | 0 mm | - | 161 W/m² | - |
| 1777466886 | 22.78° C | 86% | 1014.4 hPa | 0 mm | - | 149 W/m² | - |
| 1777466584 | 22.22° C | 87% | 1014.5 hPa | 0 mm | - | 150 W/m² | - |
* Rain latest hour (hover to see other rain measurements)
** Current wind speed in m/s (hover to see current wind gust speed)